When you browse on this site, cookies collect data to enhance your experience and personalize the content and advertising you see.
Visit our Privacy Policy to learn more. By continuing to use the site, you agree to this use of cookies and data.
  • In Spain
  • List of Countries
  • For 7 days
  • Water Temperature
  • Satellite Maps
  • Weather Map
  • Weather Widgets
  • user-avatar
    Login

    Hourly Weather Nagpur

    Today, 19 April, Friday

    Time Temperature Precipitation Wind Pressure Humidity
    00:00 +35°C° 0 mm 2 mps 730 mmHg 22%
    01:00 +34°C° 0 mm 3 mps 730 mmHg 21%
    02:00 +33°C° 0 mm 3 mps 729 mmHg 21%
    03:00 +32°C° 0 mm 2 mps 729 mmHg 22%
    04:00 +31°C° 0 mm 2 mps 729 mmHg 22%
    05:00 +31°C° 0 mm 2 mps 730 mmHg 23%
    06:00 +32°C° 0 mm 2 mps 730 mmHg 21%
    07:00 +34°C° 0 mm 2 mps 731 mmHg 20%
    08:00 +36°C° 0 mm 2 mps 731 mmHg 19%
    09:00 +37°C° 0 mm 2 mps 731 mmHg 17%
    10:00 +37°C° 0 mm 1 mps 731 mmHg 16%
    11:00 +40°C° 0 mm 1 mps 731 mmHg 14%
    12:00 +40°C° 0 mm 2 mps 730 mmHg 13%
    13:00 +42°C° 0 mm 3 mps 729 mmHg 12%
    14:00 +43°C° 0 mm 4 mps 729 mmHg 11%
    15:00 +43°C° 0 mm 5 mps 728 mmHg 11%
    16:00 +42°C° 0 mm 5 mps 728 mmHg 11%
    17:00 +42°C° 0 mm 5 mps 728 mmHg 11%
    18:00 +41°C° 0 mm 4 mps 728 mmHg 12%
    19:00 +40°C° 0 mm 4 mps 728 mmHg 13%
    20:00 +38°C° 0 mm 3 mps 729 mmHg 15%
    21:00 +37°C° 0 mm 3 mps 729 mmHg 15%
    22:00 +36°C° 0 mm 2 mps 729 mmHg 16%
    23:00 +36°C° 0 mm 2 mps 729 mmHg 17%

    Tomorrow, 20 April, Saturday

    Time Temperature Precipitation Wind Pressure Humidity
    00:00 +35°C° 0 mm 2 mps 729 mmHg 22%
    01:00 +34°C° 0 mm 2 mps 728 mmHg 27%
    02:00 +34°C° 0 mm 2 mps 728 mmHg 31%
    03:00 +32°C° 0 mm 2 mps 728 mmHg 34%
    04:00 +32°C° 0 mm 1 mps 728 mmHg 37%
    05:00 +31°C° 0 mm 1 mps 728 mmHg 40%
    06:00 +32°C° 0 mm 1 mps 729 mmHg 38%
    07:00 +33°C° 0 mm 1 mps 729 mmHg 35%
    08:00 +34°C° 0 mm 1 mps 730 mmHg 33%
    09:00 +37°C° 0 mm 2 mps 730 mmHg 29%
    10:00 +38°C° 0 mm 2 mps 730 mmHg 25%
    11:00 +40°C° 0 mm 2 mps 730 mmHg 21%
    12:00 +40°C° 0 mm 3 mps 729 mmHg 19%
    13:00 +42°C° 0 mm 3 mps 728 mmHg 17%
    14:00 +43°C° 0 mm 3 mps 728 mmHg 15%
    15:00 +42°C° 0 mm 3 mps 727 mmHg 15%
    16:00 +42°C° 0 mm 3 mps 727 mmHg 14%
    17:00 +41°C° 0 mm 2 mps 727 mmHg 14%
    18:00 +40°C° 0 mm 2 mps 727 mmHg 17%
    19:00 +39°C° 0 mm 2 mps 728 mmHg 20%
    20:00 +37°C° 0 mm 1 mps 728 mmHg 23%
    21:00 +36°C° 0 mm 1 mps 728 mmHg 26%
    22:00 +36°C° 0 mm 2 mps 728 mmHg 30%
    23:00 +35°C° 0 mm 2 mps 728 mmHg 33%

    Day after tomorrow, 21 April, Sunday

    Time Temperature Precipitation Wind Pressure Humidity
    00:00 +35°C° 0 mm 2 mps 728 mmHg 37%
    01:00 +34°C° 0 mm 2 mps 728 mmHg 42%
    02:00 +32°C° 0 mm 2 mps 728 mmHg 46%
    03:00 +32°C° 0 mm 2 mps 728 mmHg 48%
    04:00 +31°C° 0 mm 2 mps 728 mmHg 50%
    05:00 +31°C° 0 mm 2 mps 728 mmHg 52%
    06:00 +32°C° 0 mm 2 mps 729 mmHg 49%
    07:00 +34°C° 0 mm 2 mps 730 mmHg 46%
    08:00 +35°C° 0 mm 3 mps 730 mmHg 42%
    09:00 +37°C° 0 mm 2 mps 730 mmHg 35%
    10:00 +39°C° 0 mm 2 mps 730 mmHg 28%
    11:00 +40°C° 0 mm 1 mps 730 mmHg 20%
    12:00 +41°C° 0 mm 2 mps 729 mmHg 18%
    13:00 +43°C° 0 mm 3 mps 728 mmHg 15%
    14:00 +43°C° 0 mm 3 mps 728 mmHg 12%
    15:00 +43°C° 0 mm 3 mps 727 mmHg 11%
    16:00 +43°C° 0 mm 3 mps 727 mmHg 10%
    17:00 +42°C° 0 mm 2 mps 727 mmHg 9%
    18:00 +41°C° 0 mm 2 mps 727 mmHg 10%
    19:00 +40°C° 0 mm 1 mps 728 mmHg 11%
    20:00 +39°C° 0 mm 1 mps 728 mmHg 12%
    21:00 +39°C° 0 mm 1 mps 728 mmHg 13%
    22:00 +37°C° 0 mm 1 mps 728 mmHg 14%
    23:00 +36°C° 0 mm 1 mps 728 mmHg 15%

    22 April, Monday

    Time Temperature Precipitation Wind Pressure Humidity
    00:00 +35°C° 0 mm 1 mps 728 mmHg 16%
    01:00 +34°C° 0 mm 1 mps 727 mmHg 17%
    02:00 +34°C° 0 mm 1 mps 727 mmHg 17%
    03:00 +33°C° 0 mm 1 mps 727 mmHg 18%
    04:00 +32°C° 0 mm 1 mps 727 mmHg 18%
    05:00 +32°C° 0 mm 2 mps 728 mmHg 19%
    06:00 +34°C° 0 mm 2 mps 728 mmHg 18%
    07:00 +36°C° 0 mm 3 mps 729 mmHg 17%
    08:00 +38°C° 0 mm 3 mps 730 mmHg 16%
    09:00 +39°C° 0 mm 3 mps 730 mmHg 15%
    10:00 +42°C° 0 mm 3 mps 730 mmHg 14%
    11:00 +43°C° 0 mm 3 mps 730 mmHg 13%
    12:00 +43°C° 0 mm 3 mps 729 mmHg 12%
    13:00 +43°C° 0 mm 2 mps 728 mmHg 12%
    14:00 +43°C° 0 mm 1 mps 728 mmHg 11%
    15:00 +43°C° 0 mm 1 mps 728 mmHg 10%
    16:00 +43°C° 0 mm 2 mps 727 mmHg 10%
    17:00 +43°C° 0 mm 2 mps 727 mmHg 10%
    18:00 +42°C° 0 mm 1 mps 728 mmHg 10%
    19:00 +41°C° 0 mm 1 mps 728 mmHg 11%
    20:00 +37°C° 0 mm 0 mps 729 mmHg 12%
    21:00 +36°C° 0 mm 0 mps 729 mmHg 12%
    22:00 +37°C° 0 mm 1 mps 729 mmHg 13%
    23:00 +37°C° 0 mm 1 mps 729 mmHg 14%

    23 April, Tuesday

    Time Temperature Precipitation Wind Pressure Humidity
    00:00 +36°C° 0 mm 1 mps 728 mmHg 15%
    01:00 +35°C° 0 mm 1 mps 728 mmHg 16%
    02:00 +35°C° 0 mm 1 mps 728 mmHg 16%
    03:00 +34°C° 0 mm 1 mps 728 mmHg 18%
    04:00 +33°C° 0 mm 1 mps 728 mmHg 19%
    05:00 +33°C° 0 mm 1 mps 728 mmHg 20%
    06:00 +35°C° 0 mm 2 mps 729 mmHg 20%
    07:00 +37°C° 0 mm 3 mps 730 mmHg 19%
    08:00 +39°C° 0 mm 3 mps 731 mmHg 19%
    09:00 +40°C° 0 mm 3 mps 731 mmHg 16%
    10:00 +42°C° 0 mm 2 mps 730 mmHg 14%
    11:00 +45°C° 0 mm 2 mps 730 mmHg 11%
    12:00 +45°C° 0 mm 2 mps 730 mmHg 10%
    13:00 +46°C° 0 mm 2 mps 729 mmHg 9%
    14:00 +46°C° 0 mm 2 mps 728 mmHg 8%
    15:00 +45°C° 0 mm 1 mps 728 mmHg 7%
    16:00 +45°C° 0 mm 1 mps 728 mmHg 7%
    17:00 +44°C° 0 mm 1 mps 728 mmHg 7%
    18:00 +44°C° 0 mm 1 mps 728 mmHg 8%
    19:00 +43°C° 0 mm 1 mps 729 mmHg 8%
    20:00 +42°C° 0 mm 1 mps 729 mmHg 9%
    21:00 +42°C° 0 mm 2 mps 729 mmHg 10%
    22:00 +41°C° 0 mm 2 mps 729 mmHg 11%
    23:00 +40°C° 0 mm 3 mps 729 mmHg 13%

    24 April, Wednesday

    Time Temperature Precipitation Wind Pressure Humidity
    00:00 +40°C° 0 mm 3 mps 729 mmHg 15%
    01:00 +39°C° 0 mm 3 mps 728 mmHg 17%
    02:00 +38°C° 0 mm 3 mps 728 mmHg 20%
    03:00 +38°C° 0 mm 3 mps 728 mmHg 20%
    04:00 +37°C° 0 mm 3 mps 728 mmHg 21%
    05:00 +37°C° 0 mm 3 mps 728 mmHg 22%
    06:00 +38°C° 0 mm 3 mps 729 mmHg 20%
    07:00 +39°C° 0 mm 3 mps 730 mmHg 19%
    08:00 +42°C° 0 mm 3 mps 731 mmHg 17%
    09:00 +43°C° 0 mm 3 mps 730 mmHg 15%
    10:00 +44°C° 0 mm 3 mps 730 mmHg 13%
    11:00 +45°C° 0 mm 3 mps 730 mmHg 11%
    12:00 +46°C° 0 mm 2 mps 729 mmHg 10%
    13:00 +46°C° 0 mm 2 mps 728 mmHg 9%
    14:00 +47°C° 0 mm 2 mps 728 mmHg 8%
    15:00 +46°C° 0 mm 1 mps 728 mmHg 8%
    16:00 +46°C° 0 mm 1 mps 727 mmHg 8%
    17:00 +45°C° 0 mm 1 mps 727 mmHg 8%
    18:00 +44°C° 0 mm 1 mps 728 mmHg 8%
    19:00 +44°C° 0 mm 1 mps 728 mmHg 9%
    20:00 +43°C° 0 mm 1 mps 728 mmHg 9%
    21:00 +42°C° 0 mm 1 mps 729 mmHg 10%
    22:00 +42°C° 0 mm 1 mps 729 mmHg 10%
    23:00 +41°C° 0 mm 1 mps 729 mmHg 11%
    Show more